• Em Portugal
  • Lista de países
  • Para 7 dias
  • Temperatura da água
  • Mapas de satélite
  • Mapa do tempo
  • Widgets de tempo
  • user-avatar
    Iniciar Sessão

    Previsão horária em Ilincy

    Hoje, 20 Setembro, Quinta-feira

    Tempo Temperatura Precipitação Vento Pressão Humidade
    00:00 +17°C° 0 mm 2 m/s 745 mmHg 63%
    01:00 +17°C° 0 mm 2 m/s 745 mmHg 63%
    02:00 +17°C° 0 mm 2 m/s 745 mmHg 62%
    03:00 +16°C° 0 mm 2 m/s 745 mmHg 63%
    04:00 +16°C° 0 mm 2 m/s 745 mmHg 63%
    05:00 +16°C° 0 mm 2 m/s 745 mmHg 64%
    06:00 +17°C° 0 mm 2 m/s 745 mmHg 62%
    07:00 +18°C° 0 mm 2 m/s 746 mmHg 60%
    08:00 +19°C° 0 mm 2 m/s 746 mmHg 58%
    09:00 +21°C° 0 mm 2 m/s 746 mmHg 52%
    10:00 +24°C° 0 mm 2 m/s 746 mmHg 47%
    11:00 +26°C° 0 mm 2 m/s 746 mmHg 41%
    12:00 +26°C° 0 mm 2 m/s 746 mmHg 39%
    13:00 +27°C° 0 mm 2 m/s 746 mmHg 37%
    14:00 +28°C° 0 mm 2 m/s 745 mmHg 35%
    15:00 +27°C° 0 mm 2 m/s 745 mmHg 38%
    16:00 +27°C° 0 mm 1 m/s 745 mmHg 41%
    17:00 +26°C° 0 mm 1 m/s 745 mmHg 45%
    18:00 +24°C° 0 mm 1 m/s 745 mmHg 47%
    19:00 +22°C° 0 mm 1 m/s 744 mmHg 48%
    20:00 +21°C° 0 mm 1 m/s 744 mmHg 50%
    21:00 +20°C° 0 mm 1 m/s 744 mmHg 51%
    22:00 +20°C° 0 mm 1 m/s 744 mmHg 52%
    23:00 +19°C° 0 mm 1 m/s 744 mmHg 53%

    Amanhã, 21 Setembro, Sexta-feira

    Tempo Temperatura Precipitação Vento Pressão Humidade
    00:00 +19°C° 0 mm 1 m/s 744 mmHg 54%
    01:00 +16°C° 0 mm 0 m/s 744 mmHg 55%
    02:00 +16°C° 0 mm 0 m/s 744 mmHg 56%
    03:00 +16°C° 0 mm 0 m/s 744 mmHg 56%
    04:00 +15°C° 0 mm 0 m/s 744 mmHg 57%
    05:00 +16°C° 0 mm 1 m/s 744 mmHg 57%
    06:00 +18°C° 0 mm 1 m/s 745 mmHg 56%
    07:00 +20°C° 0 mm 1 m/s 745 mmHg 54%
    08:00 +21°C° 0 mm 1 m/s 745 mmHg 53%
    09:00 +23°C° 0 mm 1 m/s 745 mmHg 48%
    10:00 +25°C° 0 mm 2 m/s 745 mmHg 43%
    11:00 +26°C° 0 mm 2 m/s 745 mmHg 39%
    12:00 +27°C° 0 mm 2 m/s 745 mmHg 37%
    13:00 +28°C° 0 mm 2 m/s 744 mmHg 35%
    14:00 +28°C° 0 mm 3 m/s 744 mmHg 33%
    15:00 +27°C° 0 mm 2 m/s 744 mmHg 37%
    16:00 +27°C° 0 mm 2 m/s 743 mmHg 40%
    17:00 +26°C° 0 mm 2 m/s 743 mmHg 44%
    18:00 +24°C° 0 mm 2 m/s 743 mmHg 46%
    19:00 +23°C° 0 mm 2 m/s 743 mmHg 47%
    20:00 +20°C° 0 mm 2 m/s 743 mmHg 49%
    21:00 +20°C° 0 mm 2 m/s 743 mmHg 50%
    22:00 +19°C° 0 mm 2 m/s 743 mmHg 51%
    23:00 +19°C° 0 mm 3 m/s 743 mmHg 51%

    Depois de amanhã, 22 Setembro, Sábado

    Tempo Temperatura Precipitação Vento Pressão Humidade
    00:00 +18°C° 0 mm 3 m/s 742 mmHg 53%
    01:00 +18°C° 0 mm 3 m/s 742 mmHg 54%
    02:00 +18°C° 0 mm 3 m/s 742 mmHg 55%
    03:00 +17°C° 0 mm 3 m/s 742 mmHg 55%
    04:00 +17°C° 0 mm 3 m/s 742 mmHg 55%
    05:00 +17°C° 0 mm 3 m/s 742 mmHg 55%
    06:00 +18°C° 0 mm 3 m/s 742 mmHg 54%
    07:00 +19°C° 0 mm 3 m/s 742 mmHg 53%
    08:00 +20°C° 0 mm 4 m/s 742 mmHg 52%
    09:00 +22°C° 0 mm 4 m/s 742 mmHg 48%
    10:00 +25°C° 0 mm 5 m/s 742 mmHg 44%
    11:00 +27°C° 0 mm 5 m/s 741 mmHg 40%
    12:00 +27°C° 0 mm 5 m/s 741 mmHg 38%
    13:00 +28°C° 0 mm 5 m/s 741 mmHg 37%
    14:00 +28°C° 0 mm 4 m/s 741 mmHg 35%
    15:00 +27°C° 0 mm 4 m/s 741 mmHg 41%
    16:00 +26°C° 0 mm 4 m/s 740 mmHg 46%
    17:00 +25°C° 0 mm 3 m/s 740 mmHg 52%
    18:00 +22°C° 0.1 mm 4 m/s 740 mmHg 59%
    19:00 +20°C° 0.1 mm 4 m/s 740 mmHg 66%
    20:00 +17°C° 0.1 mm 5 m/s 740 mmHg 73%
    21:00 +15°C° 0.4 mm 6 m/s 741 mmHg 75%
    22:00 +12°C° 0.4 mm 7 m/s 741 mmHg 78%
    23:00 +10°C° 0.4 mm 8 m/s 742 mmHg 80%

    23 Setembro, Domingo

    Tempo Temperatura Precipitação Vento Pressão Humidade
    00:00 +9°C° 1.8 mm 7 m/s 742 mmHg 82%
    01:00 +8°C° 1.8 mm 6 m/s 743 mmHg 85%
    02:00 +7°C° 1.8 mm 5 m/s 743 mmHg 87%
    03:00 +7°C° 0 mm 5 m/s 743 mmHg 88%
    04:00 +7°C° 0 mm 4 m/s 743 mmHg 88%
    05:00 +8°C° 0 mm 3 m/s 744 mmHg 89%
    06:00 +7°C° 0 mm 4 m/s 744 mmHg 85%
    07:00 +8°C° 0 mm 4 m/s 744 mmHg 82%
    08:00 +10°C° 0 mm 4 m/s 744 mmHg 78%
    09:00 +12°C° 0 mm 5 m/s 744 mmHg 69%
    10:00 +14°C° 0 mm 5 m/s 744 mmHg 60%
    11:00 +16°C° 0 mm 5 m/s 744 mmHg 51%
    12:00 +16°C° 0 mm 5 m/s 744 mmHg 49%
    13:00 +17°C° 0 mm 5 m/s 744 mmHg 47%
    14:00 +17°C° 0 mm 5 m/s 744 mmHg 46%
    15:00 +18°C° 0 mm 4 m/s 744 mmHg 48%
    16:00 +17°C° 0 mm 3 m/s 743 mmHg 51%
    17:00 +17°C° 0 mm 2 m/s 743 mmHg 53%
    18:00 +16°C° 0 mm 2 m/s 743 mmHg 55%
    19:00 +14°C° 0 mm 2 m/s 743 mmHg 57%
    20:00 +13°C° 0 mm 1 m/s 743 mmHg 58%
    21:00 +13°C° 0 mm 2 m/s 743 mmHg 58%
    22:00 +12°C° 0 mm 3 m/s 742 mmHg 57%
    23:00 +12°C° 0 mm 4 m/s 742 mmHg 57%

    24 Setembro, Segunda-feira

    Tempo Temperatura Precipitação Vento Pressão Humidade
    00:00 +12°C° 0 mm 4 m/s 741 mmHg 53%
    01:00 +13°C° 0 mm 5 m/s 740 mmHg 49%
    02:00 +14°C° 0 mm 6 m/s 740 mmHg 45%
    03:00 +14°C° 0 mm 7 m/s 739 mmHg 45%
    04:00 +14°C° 0 mm 7 m/s 738 mmHg 44%
    05:00 +13°C° 0 mm 8 m/s 737 mmHg 44%
    06:00 +13°C° 0 mm 8 m/s 736 mmHg 49%
    07:00 +13°C° 0 mm 8 m/s 735 mmHg 54%
    08:00 +15°C° 0 mm 8 m/s 734 mmHg 60%
    09:00 +15°C° 0.4 mm 8 m/s 734 mmHg 63%
    10:00 +16°C° 0.4 mm 8 m/s 734 mmHg 66%
    11:00 +17°C° 0.4 mm 8 m/s 733 mmHg 69%
    12:00 +16°C° 1.2 mm 9 m/s 734 mmHg 72%
    13:00 +16°C° 1.2 mm 9 m/s 734 mmHg 75%
    14:00 +15°C° 1.2 mm 9 m/s 734 mmHg 78%
    15:00 +13°C° 0.5 mm 9 m/s 735 mmHg 77%
    16:00 +12°C° 0.5 mm 8 m/s 736 mmHg 76%
    17:00 +11°C° 0.5 mm 8 m/s 737 mmHg 75%
    18:00 +10°C° 0 mm 8 m/s 738 mmHg 75%
    19:00 +9°C° 0 mm 8 m/s 739 mmHg 74%
    20:00 +9°C° 0 mm 7 m/s 739 mmHg 73%
    21:00 +8°C° 0 mm 7 m/s 740 mmHg 73%
    22:00 +8°C° 0 mm 6 m/s 740 mmHg 74%
    23:00 +7°C° 0 mm 6 m/s 740 mmHg 74%

    25 Setembro, Terça-feira

    Tempo Temperatura Precipitação Vento Pressão Humidade
    00:00 +7°C° 0 mm 6 m/s 741 mmHg 77%
    01:00 +7°C° 0 mm 6 m/s 742 mmHg 79%
    02:00 +7°C° 0 mm 5 m/s 742 mmHg 81%
    03:00 +5°C° 0 mm 6 m/s 743 mmHg 81%
    04:00 +5°C° 0 mm 6 m/s 743 mmHg 81%
    05:00 +5°C° 0 mm 6 m/s 744 mmHg 80%
    06:00 +5°C° 0 mm 6 m/s 744 mmHg 75%
    07:00 +5°C° 0 mm 7 m/s 744 mmHg 70%
    08:00 +6°C° 0 mm 8 m/s 745 mmHg 65%
    09:00 +8°C° 0 mm 7 m/s 745 mmHg 59%
    10:00 +10°C° 0 mm 7 m/s 745 mmHg 52%
    11:00 +11°C° 0 mm 7 m/s 746 mmHg 46%
    12:00 +11°C° 0 mm 7 m/s 746 mmHg 45%
    13:00 +12°C° 0 mm 7 m/s 746 mmHg 43%
    14:00 +12°C° 0 mm 7 m/s 745 mmHg 42%
    15:00 +13°C° 0 mm 6 m/s 745 mmHg 46%
    16:00 +12°C° 0 mm 5 m/s 746 mmHg 49%
    17:00 +11°C° 0 mm 4 m/s 746 mmHg 53%
    18:00 +10°C° 0 mm 3 m/s 746 mmHg 58%
    19:00 +9°C° 0 mm 3 m/s 746 mmHg 63%
    20:00 +8°C° 0 mm 3 m/s 747 mmHg 68%
    21:00 +7°C° 0 mm 3 m/s 747 mmHg 71%
    22:00 +5°C° 0 mm 3 m/s 747 mmHg 73%
    23:00 +6°C° 0 mm 2 m/s 748 mmHg 76%
    Mostrar mais